Location: Cabo di Oristano
(39.8500°N, 8.4333°E)
Time: 18:14:52
(UTC+00:00)

CZ-2C R/B - Pass Details

Date: 31 January 2023
Orbit: 488 x 546 km, 97.8° (Epoch: 31 March)

Event Time Altitude Azimuth Distance (km) Brightness Sun altitude
Rises 04:08:58 0° 19° (NNE) 2,714 6.6 -28.3°
Reaches altitude 10° 04:11:09 10° 26° (NNE) 1,825 5.7 -27.9°
Maximum altitude 04:14:57 44° 99° (E) 773 3.9 -27.2°
Enters shadow 04:16:25 30° 150° (SSE) 1,006 4.3 -26.9°
Exits shadow 04:19:41 - 176° (S) 2,204 5.9 -26.3°
Sets 04:20:56 0° 179° (S) 2,721 6.4 -26.0°
